Regional Weather Roundup
Issued by NWS Memphis, TN

Home | Current Version | Previous Version | Text Only | Print | Product List | Glossary On
Versions: 1 2 3 4 5 6 7 8 9 10 11 12 13 14 15 16 17 18 19 20 21 22 23 24 25 26 27 28 29 30 31 32 33 34 35 36 37 38 39 40 41 42 43 44 45 46 47 48 49 50
000
ASUS44 KMEG 270100
RWRMEG
MEMPHIS CWA HOURLY WEATHER ROUNDUP
NATIONAL WEATHER SERVICE MEMPHIS TN
800 PM CDT SUN MAR 26 2017

...WEST TENNESSEE...

CITY           SKY/WX    TMP DP  RH WIND       PRES   REMARKS
MEMPHIS INTL   PTCLDY    69  53  56 S6        29.94S
NWS MEMPHIS      N/A     68 N/A N/A MISG        N/A
JACKSON        PTCLDY    64  53  67 CALM      29.96R
DYERSBURG      CLOUDY    63  55  75 CALM      29.96S
PARIS          CLEAR     61  48  63 CALM      29.98R


...EASTERN ARKANSAS...

CITY           SKY/WX    TMP DP  RH WIND       PRES   REMARKS
JONESBORO      PTCLDY    63  54  72 E3        29.92F
WEST MEMPHIS   CLEAR     64  58  80 CALM      29.93R
BATESVILLE     CLOUDY    66  50  55 SE6       29.91S
WALNUT RIDGE   MOCLDY    64  54  68 SE7       29.92F
BLYTHEVILLE    CLOUDY    65  56  72 CALM      29.95S
SEARCY         CLOUDY    67  57  70 E5        29.92S
STUTTGART      PTCLDY    70  50  49 E8        29.90F
PINE BLUFF     PTCLDY    68  60  75 E5        29.88S
MONTICELLO       N/A     71  55  56 SE5       29.89S


...NORTH MISSISSIPPI...

CITY           SKY/WX    TMP DP  RH WIND       PRES   REMARKS
TUPELO         CLEAR     68  53  58 CALM      29.96R
OLIVE BRANCH   MOCLDY   N/A N/A N/A CALM      29.94S
TUNICA         CLEAR     64  54  68 SE5       29.94S
CLARKSDALE     CLEAR     68  59  73 SE6       29.93S
GREENWOOD      CLEAR     68  60  75 NE3       29.93S
COLUMBUS       CLEAR     68  59  72 S3        29.95S
STARKVILLE     PTCLDY    70  57  64 CALM      29.97R
GOLDEN TRIANGL CLEAR     72  55  56 S7        29.91S


...SOUTHEAST MISSOURI...

CITY           SKY/WX    TMP DP  RH WIND       PRES   REMARKS
KENNETT        CLOUDY    63  57  82 CALM      29.94S
MALDEN         CLOUDY    63  54  72 CALM      29.96S
WEST PLAINS    CLOUDY    60  49  66 E5        29.90F
POPLAR BLUFF   PTCLDY    60  53  77 E3        29.94S
CAPE GIRARDEAU MOCLDY    58  49  72 SE3       29.95S


...NORTHWEST ALABAMA...

CITY           SKY/WX    TMP DP  RH WIND       PRES   REMARKS
MUSCLE SHOALS  CLEAR     67  54  63 SE6       30.00R


...MIDDLE TENNESSEE...

CITY           SKY/WX    TMP DP  RH WIND       PRES   REMARKS
NASHVILLE      MOCLDY    66  54  65 S6        29.99R
CLARKSVILLE    CLOUDY    66  51  58 NW5       29.97R
COLUMBIA       MOCLDY    66  55  68 S3        29.98R


...WESTERN KENTUCKY...

CITY           SKY/WX    TMP DP  RH WIND       PRES   REMARKS
PADUCAH        PTCLDY    61  51  70 CALM      29.95S


...CENTRAL ARKANSAS...

CITY           SKY/WX    TMP DP  RH WIND       PRES   REMARKS
LITTLE ROCK    CLOUDY    66  55  67 E7        29.88F


SKY/WX REPORTED AS FAIR MEANS FEW OR NO CLOUDS BELOW
12 THOUSAND FEET.





USA.gov is the U.S. government's official web portal to all federal, state and local government web resources and services.